User: anonymous   Login
Location: Unspecified
(0.0000°N, 0.0000°E)
Time: 16:39:01
(UTC+00:00)
Language:

COSMOS 2467 - Orbit

View from above orbital plane
View from above orbital plane
View from above satellite
View from above satellite

Ground track
Ground track

The orbit data is extracted from the following two-line orbital elements,

1 37152U 10043A   17204.75664697 +.00000023 +00000-0 +91510-4 0  9995
2 37152 082.4596 298.0718 0002320 084.4630 275.6715 12.42873764311755
Epoch (UTC): 23 July 2017 18:09:34
Eccentricity: 0.0002320
inclination: 82.4596°
perigee height: 1492 km
apogee height: 1496 km
right ascension of ascending node: 298.0718°
argument of perigee: 84.4630°
revolutions per day: 12.42873764
mean anomaly at epoch: 275.6715°
orbit number at epoch: 31175

The dashed part of the orbit path shows where the satellite is in the earth's shadow,  

DLR